Location: Hamilton
(37.7830°S, 175.2830°E)
Time: 18:23:26
(UTC+12:00)

Cosmos 1515 Rocket - Visible Passes

Search period start: 25 April 2019 00:00
Search period end: 05 May 2019 00:00
Orbit: 605 x 631 km, 82.5° (Epoch: 24 April)

Date Brightness Start Highest point End Pass type
(mag) Time Alt. Az. Time Alt. Az. Time Alt. Az.
30 Apr 5.9 18:52:27 10° SSE 18:52:27 10° SSE 18:52:27 10° SSE visible
30 Apr 6.5 20:29:36 10° SSW 20:29:37 10° SSW 20:29:37 10° SSW visible
01 May 5.4 19:08:51 10° S 19:10:13 18° SSE 19:10:13 18° SSE visible
02 May 4.6 19:25:41 10° S 19:28:17 33° S 19:28:17 33° S visible
03 May 5.5 18:07:53 10° SE 18:08:58 11° ESE 18:09:41 10° ESE visible
03 May 4.0 19:42:49 10° SSW 19:46:58 59° WSW 19:46:58 59° WSW visible
04 May 4.8 18:23:03 10° SSE 18:26:22 20° ESE 18:29:38 10° ENE visible
04 May 5.3 20:00:17 10° SSW 20:04:15 31° W 20:08:08 10° NNW visible
